TimeEDT,TemperatureF,Dew PointF,Humidity,Sea Level PressureIn,VisibilityMPH,Wind Direction,Wind SpeedMPH,Gust SpeedMPH,PrecipitationIn,Events,Conditions,WindDirDegrees,DateUTC
12:53 AM,28.4,21.2,74,30.25,10.0,NW,5.8,-,N/A,,Clear,320,2012-10-12 04:53:00
1:53 AM,27.0,19.9,75,30.31,10.0,WNW,6.9,-,N/A,,Clear,300,2012-10-12 05:53:00
2:53 AM,30.0,21.0,69,30.32,10.0,NW,3.5,-,N/A,,Clear,310,2012-10-12 06:53:00
3:53 AM,27.0,21.0,78,30.34,10.0,West,3.5,-,N/A,,Partly Cloudy,280,2012-10-12 07:53:00
4:53 AM,28.0,24.1,85,30.35,10.0,Calm,Calm,-,N/A,,Overcast,0,2012-10-12 08:53:00
5:53 AM,30.9,26.1,82,30.36,10.0,West,3.5,-,0.00,,Mostly Cloudy,260,2012-10-12 09:53:00
6:53 AM,34.0,28.9,82,30.38,10.0,NNW,6.9,-,N/A,,Mostly Cloudy,330,2012-10-12 10:53:00
7:10 AM,35.6,28.4,75,30.34,10.0,NNW,8.1,-,N/A,,Mostly Cloudy,340,2012-10-12 11:10:00
7:26 AM,33.8,28.4,81,30.35,10.0,NW,6.9,-,N/A,,Overcast,310,2012-10-12 11:26:00
8:53 AM,35.1,26.1,70,30.40,10.0,NNW,4.6,-,N/A,,Overcast,340,2012-10-12 12:53:00
9:53 AM,36.0,27.0,70,30.42,10.0,NW,5.8,-,N/A,,Overcast,320,2012-10-12 13:53:00
10:53 AM,37.9,26.1,62,30.43,10.0,NNW,6.9,-,N/A,,Overcast,340,2012-10-12 14:53:00
11:53 AM,37.9,25.0,60,30.43,10.0,West,8.1,-,N/A,,Mostly Cloudy,270,2012-10-12 15:53:00
12:53 PM,39.2,24.8,56,30.38,10.0,WNW,10.4,-,N/A,,Mostly Cloudy,290,2012-10-12 16:53:00
1:53 PM,41.0,24.1,51,30.39,10.0,Variable,3.5,-,N/A,,Partly Cloudy,0,2012-10-12 17:53:00
2:53 PM,42.8,24.8,49,30.33,10.0,West,8.1,-,N/A,,Scattered Clouds,260,2012-10-12 18:53:00
3:53 PM,42.8,26.6,53,30.31,10.0,NW,6.9,-,N/A,,Clear,320,2012-10-12 19:53:00
4:53 PM,43.0,27.0,53,30.32,10.0,Variable,3.5,-,N/A,,Clear,0,2012-10-12 20:53:00
5:53 PM,43.0,28.0,56,30.31,10.0,Calm,Calm,-,N/A,,Clear,0,2012-10-12 21:53:00
6:53 PM,37.9,28.9,70,30.29,10.0,NNW,4.6,-,N/A,,Clear,340,2012-10-12 22:53:00
7:53 PM,35.1,28.0,76,30.27,10.0,NNE,3.5,-,N/A,,Clear,30,2012-10-12 23:53:00
8:53 PM,35.1,28.0,76,30.26,10.0,ENE,3.5,-,N/A,,Clear,70,2012-10-13 00:53:00
9:53 PM,37.4,28.4,70,30.20,10.0,East,4.6,-,N/A,,Clear,80,2012-10-13 01:53:00
10:53 PM,37.4,30.2,75,30.18,10.0,Calm,Calm,-,N/A,,Clear,0,2012-10-13 02:53:00
11:53 PM,37.9,28.0,68,30.19,10.0,South,3.5,-,N/A,,Clear,170,2012-10-13 03:53:00